sat.trackr.live / text

‹ back to catalog

STARLINK-30836

NORAD 58221 · 2023-170R

PAYLOAD ACTIVE UNKNOWN

§ Identity

Operator
Country
US
Launch date
2023-11-03
Launch site
AFETR
Launch vehicle
Mass (kg)
RCS (m²)

Purposes: comms

External: N2YO · Heavens-Above · Gunter

§ Orbital elements

Epoch: 2026-05-25T05:25:23.291328Z

Period
94.27 min
Inclination
42.9996°
Eccentricity
0.0001613
Mean motion
15.27592915 rev/d
Perigee alt
481.9 km
Apogee alt
484.1 km
Semi-major
6,861.1 km
B*
9.5923e-5
RAAN
122.0775°
Arg perigee
269.8249°
Mean anomaly
90.2418°
Rev number
14,200

§ Raw data

STARLINK-308361 58221U 23170R   26145.22596402  .00002379  00000+0  95923-4 0  99912 58221  42.9996 122.0775 0001613 269.8249  90.2418 15.27592915142001

JSON: /api/v1/satellites/58221 · /tle

For live sub-satellite position, see the globe view (requires WebGL).

§ Visibility from observer

Set your observer location to see the next 7 days of passes ≥ 10°. The values pass through the URL so the page stays shareable.

No JS? Fill the form by hand. The geolocation button needs JavaScript.